Tracking 28790 objects as of 19-Apr-2024
HD Live streaming from Space Station
objects crossing your sky now

COSMOS 340

Track COSMOS 340 now!
10-day predictions
COSMOS 340 is classified as:


NORAD ID: 4387
Int'l Code: 1970-036E
Perigee: 1,414.4 km
Apogee: 1,476.2 km
Inclination: 74.0 °
Period: 114.6 minutes
Semi major axis: 7816 km
RCS: 0.7658 m2 (medium)
Launch date: April 25, 1970
Source: Commonwealth of Independent States (former USSR) (CIS)
Launch site: PLESETSK MISSILE AND SPACE COMPLEX (PKMTR)
Your satellite tracking list
Your tracking list is empty




NASA's NSSDC Master Catalog

Two Line Element Set (TLE):
1 04387U 70036E   24109.86443031  .00000002  00000-0  10693-3 0  9997
2 04387  74.0277 253.9159 0039548   9.7546 103.8647 12.56314159475254
Source of the keplerian elements: AFSPC